User: anonymous   Login
Location: Mentone
(34.5413°N, 85.5351°W)
Time: 23:30:53
(UTC-05:00)
Language:

Uosat F - Orbit

View from above orbital plane
View from above orbital plane
View from above satellite
View from above satellite

Ground track
Ground track

The orbit data is extracted from the following two-line orbital elements,

1 21575U 91050B   18111.55431778  .00000012  00000-0  18038-4 0  9994
2 21575  98.7349 139.9763 0008473 101.0573 259.1568 14.40840983405689
Epoch (UTC): 21 April 2018 13:18:13
Eccentricity: 0.0008473
inclination: 98.7349°
perigee height: 749 km
apogee height: 762 km
right ascension of ascending node: 139.9763°
argument of perigee: 101.0573°
revolutions per day: 14.40840983
mean anomaly at epoch: 259.1568°
orbit number at epoch: 40568

The dashed part of the orbit path shows where the satellite is in the earth's shadow,  

DLR